Location: Luxembourg
(49.6117°N, 6.1300°E)
Time: 09:47:03
(UTC+02:00)

First-Move - Visible Passes

Search period start: 14 October 2019 00:00
Search period end: 24 October 2019 00:00
Orbit: 577 x 669 km, 97.6° (Epoch: 13 October)

Date Brightness Start Highest point End Pass type
(mag) Time Alt. Az. Time Alt. Az. Time Alt. Az.
14 Oct ? 07:03:13 10° NE 07:06:30 20° E 07:09:50 10° SE visible
14 Oct ? 19:38:16 10° SSW 19:42:08 39° W 19:46:07 10° NNW visible
15 Oct ? 07:21:02 10° NNE 07:24:56 29° E 07:28:53 10° SSE visible
15 Oct ? 19:57:03 10° SSW 20:00:32 26° W 20:04:06 10° NW visible
16 Oct ? 20:16:08 10° SW 20:18:58 18° W 20:21:51 10° NW visible
17 Oct ? 20:35:54 10° WSW 20:37:28 12° W 20:39:03 10° WNW visible
18 Oct ? 06:41:10 10° ENE 06:43:09 13° E 06:45:08 10° ESE visible
18 Oct ? 19:14:46 10° S 19:18:54 67° W 19:23:09 10° NNW visible
19 Oct ? 06:58:27 10° NE 07:01:39 19° E 07:04:51 10° SE visible
19 Oct ? 19:33:15 10° S 19:37:13 43° W 19:41:19 10° NNW visible
20 Oct ? 07:16:13 10° NE 07:20:04 27° E 07:23:58 10° SSE visible
20 Oct ? 19:51:57 10° SSW 19:55:35 29° W 19:59:21 10° NNW visible
21 Oct ? 20:10:56 10° SW 20:14:01 20° W 20:17:11 10° NW visible
22 Oct ? 20:30:26 10° WSW 20:32:30 13° W 20:34:36 10° WNW visible
23 Oct ? 06:36:35 10° ENE 06:38:14 12° E 06:39:53 10° ESE visible
23 Oct ? 19:09:46 10° S 19:13:58 74° WSW 19:18:20 10° NNW visible
